Weather History for Louisville Bowman, KY

Change the Weather History Date:

Thursday, February 7, 2013

  Actual Average Record
Temperature  
Mean Temperature 49 °F 36 °F  
Max Temperature 66 °F 44 °F 66 °F (2013)
Min Temperature 32 °F 28 °F 0 °F (1978)
Degree Days  
Heating Degree Days 16 29  
Month to date heating degree days 227 205  
Since 1 July heating degree days 2678 2814  
Cooling Degree Days 0 0  
Month to date cooling degree days 0 0  
Year to date cooling degree days 0 0  
Moisture  
Dew Point 34 °F    
Average Humidity 62    
Maximum Humidity 89    
Minimum Humidity 34    
Precipitation  
Precipitation 0.00 in 0.12 in 0.80 in (1965)
Month to date precipitation 0.18 0.83  
Year to date precipitation 5.05 4.21  
Sea Level Pressure  
Sea Level Pressure 30.02 in    
Wind  
Wind Speed 4 mph (South)    
Max Wind Speed 12 mph    
Max Gust Speed 15 mph    
Visibility 9 miles    
Events      
T = Trace of Precipitation, MM = Missing Value Source: NWS Daily Summary

Daily Weather History Graph

Daily Weather History Graph

Search for Another Location

Airport:

Trip Planner

Search our weather history database for the weather conditions in past years. The results will help you decide how hot, cold, wet, or windy it might be!

Date:

Astronomy

Feb. 07, 2013 Rise Set
Actual Time 7:41 AM EST 6:12 PM EST
Civil Twilight 7:14 AM EST 6:39 PM EST
Nautical Twilight 6:42 AM EST 7:11 PM EST
Astronomical Twilight 6:12 AM EST 7:42 PM EST
Moon 5:19 AM EST (2/7) 3:37 PM EST (2/7)
Length of Visible Light 11h 25m
Length of Day
10h 30m
Waning Crescent, 9% of the Moon is Illuminated
Feb 7
Waning Crescent
Feb 10
New
Feb 17
First Quarter
Feb 25
Full
Mar 4
Last Quarter

Hourly Weather History & Observations

Time (EST) Temp. Windchill Dew Point Humidity Pressure Visibility Wind Dir Wind Speed Gust Speed Precip Events Conditions
12:53 AM 36.0 °F - 28.0 °F 73% 30.19 in 9.0 mi Calm Calm - N/A   Clear
1:53 AM 37.0 °F - 28.9 °F 73% 30.16 in 9.0 mi Calm Calm - N/A   Clear
2:53 AM 34.0 °F - 28.9 °F 82% 30.17 in 7.0 mi Calm Calm - N/A   Clear
3:53 AM 33.1 °F - 28.9 °F 85% 30.17 in 7.0 mi Calm Calm - N/A   Clear
4:53 AM 33.1 °F 30.0 °F 28.9 °F 85% 30.15 in 7.0 mi NW 3.5 mph - N/A   Clear
5:53 AM 34.0 °F 31.0 °F 30.0 °F 85% 30.14 in 6.0 mi NW 3.5 mph - N/A   Mostly Cloudy
6:53 AM 37.0 °F - 30.0 °F 76% 30.12 in 7.0 mi Calm Calm - N/A   Mostly Cloudy
7:53 AM 34.0 °F 31.0 °F 30.0 °F 85% 30.12 in 5.0 mi NNW 3.5 mph - N/A   Partly Cloudy
8:53 AM 36.0 °F - 30.9 °F 82% 30.12 in 5.0 mi Calm Calm - N/A   Haze
9:53 AM 42.1 °F 40.2 °F 32.0 °F 67% 30.09 in 8.0 mi ESE 3.5 mph - N/A   Clear
10:53 AM 48.2 °F - 33.8 °F 58% 30.07 in 10.0 mi Calm Calm - N/A   Clear
11:53 AM 53.1 °F - 33.1 °F 47% 30.06 in 10.0 mi SE 3.5 mph - N/A   Clear
12:53 PM 57.9 °F - 33.1 °F 39% 30.01 in 10.0 mi Variable 6.9 mph - N/A   Clear
1:53 PM 61.0 °F - 35.1 °F 38% 29.97 in 10.0 mi South 6.9 mph - N/A   Clear
2:53 PM 64.0 °F - 36.0 °F 35% 29.94 in 10.0 mi South 4.6 mph - N/A   Clear
3:53 PM 66.0 °F - 37.0 °F 34% 29.92 in 10.0 mi SSW 5.8 mph - N/A   Clear
4:53 PM 64.9 °F - 37.0 °F 36% 29.90 in 10.0 mi South 8.1 mph - N/A   Clear
5:53 PM 63.0 °F - 37.9 °F 40% 29.89 in 10.0 mi SSE 5.8 mph - N/A   Clear
6:53 PM 60.1 °F - 37.9 °F 44% 29.89 in 10.0 mi SSE 3.5 mph - N/A   Clear
7:53 PM 57.0 °F - 37.9 °F 49% 29.89 in 10.0 mi South 4.6 mph - N/A   Clear
8:53 PM 55.0 °F - 37.9 °F 53% 29.89 in 10.0 mi SSE 4.6 mph - N/A   Clear
9:53 PM 53.1 °F - 37.0 °F 55% 29.88 in 10.0 mi SE 3.5 mph - N/A   Scattered Clouds
10:53 PM 54.0 °F - 36.0 °F 51% 29.86 in 10.0 mi South 5.8 mph - N/A   Overcast
11:53 PM 54.0 °F - 37.9 °F 55% 29.85 in 10.0 mi South 9.2 mph - N/A   Overcast